Location: Campestrin
(46.4667°N, 11.7167°E)
Time: 02:44:36
(UTC+00:00)

SJ 16-02 - Pass Details

Date: 18 April 2021
Orbit: 605 x 617 km, 75.0° (Epoch: 16 May)

Event Time Altitude Azimuth Distance (km) Brightness Sun altitude
Exits shadow 23:56:03 13° 74° (ENE) 1,769 4.0 -31.5°
Drops below altitude 10° 23:57:10 10° 60° (ENE) 1,982 4.4 -31.5°
Sets 00:00:15 0° 38° (NE) 2,896 5.7 -31.4°
